Flag for Trinidad and Tobago Weather past 2 weeks in Port of Spain, Trinidad and Tobago

Now
88 °F

Passing clouds.


Feels Like: 93 °F
Forecast: 77 / 86 °F
Wind: 15 mph from East

Location: Piarco International Airport - Trinidad

Current Time: Apr 19, 2015 at 3:17:02 PM

Latest Report: Apr 19, 2015 at 2:00 PM


Visibility: 4 mi

Pressure: 29.92 "Hg

Humidity: 55%

Dew point: 70 °F

Location of Port of SpainLocation

Historic Weather in Port of Spain — Graph

°F

Port of Spain temperature yesterday

Maximum temperature yesterday: 88 °F (at 12:00 PM)
Minimum temperature yesterday: 75 °F (at 5:00 AM)
Average temperature yesterday: 81 °F

Past Weeks' High & Low Weather Summary

 TemperatureHumidityPressure
High91 °F (Apr 8, 2:00 PM)94% (Apr 5, 4:00 AM)30.04 "Hg (Apr 5, 4:00 AM)
Low72 °F (Apr 5, 4:00 AM)46% (Apr 6, 1:00 PM)29.83 "Hg (Apr 4, 5:00 PM)
Average81 °F76%29.93 "Hg
* Reported Apr 4 2:00 PM — Apr 19 2:00 PM, Port of Spain, Weather by CustomWeather, © 2015

Note: Actual official high and low records may vary slightly from our data, if they occured in-between our weather recording intervals... More about our weather records

Advertising

Port of Spain weather history for previous 24 hours

 ConditionsComfort  
Time TempWeatherWind HumidityBarometerVisibility
2:00 PM
Sun, Apr 19
88 °FPassing clouds.15 mph55%29.92 "Hg4 mi
1:00 PM88 °FPassing clouds.17 mph55%29.95 "Hg4 mi
12:00 PM88 °FScattered clouds.18 mph55%29.95 "Hg4 mi
11:00 AM88 °FScattered showers. Partly sunny.16 mph62%29.98 "Hg4 mi
10:00 AM86 °FScattered showers. Passing clouds.15 mph66%29.98 "Hg4 mi
9:00 AM82 °FScattered showers. Passing clouds.15 mph74%29.98 "Hg4 mi
8:00 AM81 °FPassing clouds.9 mph79%29.98 "HgN/A
7:00 AM79 °FPassing clouds.10 mph84%29.95 "HgN/A
6:00 AM77 °FPassing clouds.3 mph89%29.92 "HgN/A
5:00 AM77 °FPassing clouds.No wind89%29.89 "HgN/A
4:00 AM77 °FPassing clouds.No wind89%29.89 "HgN/A
3:00 AM77 °FPassing clouds.No wind89%29.89 "HgN/A
2:00 AM77 °FPassing clouds.No wind89%29.89 "HgN/A
1:00 AM77 °FPassing clouds.No wind89%29.92 "HgN/A
12:00 AM77 °FPassing clouds.6 mph89%29.95 "HgN/A
11:00 PM
Sat, Apr 18
79 °FPassing clouds.6 mph84%29.95 "HgN/A
10:00 PM79 °FPassing clouds.7 mph84%29.95 "HgN/A
9:00 PM79 °FPassing clouds.12 mph84%29.95 "HgN/A
8:00 PM79 °FPassing clouds.12 mph84%29.95 "HgN/A
7:00 PM79 °FPassing clouds.9 mph84%29.92 "HgN/A
6:00 PM81 °FPassing clouds.14 mph74%29.92 "HgN/A
5:00 PM84 °FScattered clouds.13 mph62%29.89 "HgN/A
4:00 PM82 °FPartly sunny.16 mph66%29.89 "HgN/A
3:00 PM82 °FScattered showers. Partly sunny.17 mph79%29.92 "Hg3 mi
Weather by CustomWeather, © 2015

See weather overviewHow to use our weather pages